Theta_e
332 328 326 328 325 323 320 319 322 320 319 319 318 316 317 315 314 316 315 313 313 312
331 330 327 328 327 322 322 319 319 320 319 317 318 315 314 313 314 315 314 313 313 313
329 326 326 326 324 322 321 319 319 319 317 317 314 313 314 314 314 313 314 313 312 312
325 325 325 324 321 319 319 318 317 316 315 310 312 315 314 314 313 312 313 314 312 313
324 325 323 320 319 318 317 318 316 315 310 312 313 314 312 311 311 312 311 312 312 312
324 322 320 319 317 316 316 315 314 311 309 309 312 312 313 312 312 312 312 312 312 312
321 319 318 316 315 315 313 311 309 309 309 311 313 313 313 312 313 311 312 312 312 313
319 318 316 314 314 310 310 311 311 309 310 313 313 310 311 311 311 308 308 309 310 311
317 316 314 312 313 313 311 311 310 311 311 312 311 304 304 306 311 310 310 309 311 316
315 312 311 312 312 309 311 312 311 312 313 312 312 301 301 304 311 310 310 309 311 310
311 311 311 312 311 311 307 309 313 314 310 313 310 301 301 303 314 316 316 313 314 310
312 311 311 310 310 311 311 312 313 313 314 313 313 299 299 303 315 318 317 316 313 312
313 311 310 312 312 314 314 314 315 313 314 309 313 299 299 301 315 317 316 316 312 303
313 311 313 312 314 314 314 314 313 313 313 313 309 310 299 300 317 318 315 314 313 313
Wind_Speed
3 5 6 8 8 9 9 10 10 10 9 10 11 10 9 7 8 9 7 9 6 5
5 8 9 8 8 9 11 9 12 11 11 10 10 10 9 8 9 7 7 7 6 6
3 5 5 9 10 11 11 9 12 11 10 10 9 11 9 9 8 7 6 5 7 7
5 5 5 10 11 11 10 11 11 9 9 8 11 10 9 9 8 8 8 8 7 8
7 9 6 11 12 10 10 12 10 9 9 11 10 9 8 8 8 9 10 8 6 9
9 9 11 11 9 8 9 11 10 10 9 10 11 9 7 8 8 6 6 5 7 5
10 11 11 9 7 9 10 10 8 7 8 11 9 7 7 7 7 7 9 9 9 9
11 11 11 9 10 7 7 8 11 6 9 8 5 6 9 9 6 5 6 7 8 8
11 12 9 10 10 12 12 12 6 6 7 4 3 7 9 8 6 6 6 7 8 11
13 12 11 12 11 12 11 10 10 6 7 5 6 9 9 10 3 4 4 6 7 8
10 10 13 11 9 9 7 7 7 7 5 6 8 9 9 11 7 1 8 5 10 10
10 12 10 9 9 7 6 5 5 7 9 9 10 13 13 12 6 5 13 13 10 13
11 9 9 8 7 7 6 6 6 8 10 9 11 13 13 11 4 5 9 12 12 16
10 8 8 7 7 7 7 7 7 8 8 10 9 12 11 15 7 6 8 9 8 9
Wind_Direction
304 309 308 353 332 314 313 328 335 319 305 315 322 309 314 295 280 289 299 286 267 270
355 335 322 328 317 318 320 331 322 318 323 306 319 314 298 286 302 304 288 280 276 276
18 347 334 321 324 323 311 326 301 325 320 332 318 296 292 291 296 294 278 269 262 260
319 335 321 323 330 315 332 304 322 326 333 317 295 297 296 300 298 288 281 273 263 268
311 325 348 333 319 354 332 322 329 333 327 305 302 309 307 303 299 300 301 292 283 272
350 341 334 333 6 344 328 335 338 332 312 303 298 298 309 298 304 320 337 339 302 298
348 342 340 22 5 340 356 336 321 320 302 292 304 321 329 342 354 6 347 342 324 311
351 349 19 360 357 340 317 312 302 313 298 306 351 13 349 2 12 354 340 317 303 289
0 18 1 344 332 346 359 3 318 324 301 29 20 2 348 340 342 353 334 332 336 15
19 1 352 10 6 1 0 3 350 351 19 35 54 9 350 340 316 321 339 339 19 44
1 10 16 7 17 9 351 338 347 34 31 39 56 7 351 320 276 110 66 61 68 72
13 26 356 11 11 12 355 7 357 34 44 51 48 10 5 348 336 42 71 64 70 84
30 15 5 18 9 10 2 20 46 49 50 45 48 27 360 356 341 68 85 86 75 54
33 339 26 24 22 16 27 47 48 56 58 48 39 46 11 8 37 30 73 79 83 72